Year,Month,Day,Hour,Minute,Value (Times are PST for temperature in C)
2007,08,15,00,00,17.00
2007,08,15,00,01,17.00
2007,08,15,00,02,16.90
2007,08,15,00,03,16.90
2007,08,15,00,04,16.90
2007,08,15,00,05,16.90
2007,08,15,00,06,16.90
2007,08,15,00,07,16.90
2007,08,15,00,08,16.90
2007,08,15,00,09,16.90
2007,08,15,00,10,16.90
2007,08,15,00,11,16.90
2007,08,15,00,12,16.90
2007,08,15,00,13,16.90
2007,08,15,00,14,16.90
2007,08,15,00,15,16.90
2007,08,15,00,16,16.90
2007,08,15,00,17,16.90
2007,08,15,00,18,16.90
2007,08,15,00,19,16.90
2007,08,15,00,20,16.90
2007,08,15,00,21,16.80
2007,08,15,00,22,16.80
2007,08,15,00,23,16.80
2007,08,15,00,24,16.80
2007,08,15,00,25,16.80
2007,08,15,00,26,16.80
2007,08,15,00,27,16.80
2007,08,15,00,28,16.80
2007,08,15,00,29,16.80
2007,08,15,00,30,16.80
2007,08,15,00,31,16.80
2007,08,15,00,32,16.80
2007,08,15,00,33,16.80
2007,08,15,00,34,16.80
2007,08,15,00,35,16.70
2007,08,15,00,36,16.70
2007,08,15,00,37,16.70
2007,08,15,00,38,16.70
2007,08,15,00,39,16.70
2007,08,15,00,40,16.70
2007,08,15,00,41,16.70
2007,08,15,00,42,16.60
2007,08,15,00,43,16.60
2007,08,15,00,44,16.60
2007,08,15,00,45,16.60
2007,08,15,00,46,16.60
2007,08,15,00,47,16.60
2007,08,15,00,48,16.50
2007,08,15,00,49,16.50
2007,08,15,00,50,16.40
2007,08,15,00,51,16.40
2007,08,15,00,52,16.40
2007,08,15,00,53,16.40
2007,08,15,00,54,16.40
2007,08,15,00,55,16.40
2007,08,15,00,56,16.40
2007,08,15,00,57,16.40
2007,08,15,00,58,16.40
2007,08,15,00,59,16.40
2007,08,15,01,00,16.40
2007,08,15,01,01,16.40
2007,08,15,01,02,16.40
2007,08,15,01,03,16.40
2007,08,15,01,04,16.30
2007,08,15,01,05,16.30
2007,08,15,01,06,16.30
2007,08,15,01,07,16.30
2007,08,15,01,08,16.30
2007,08,15,01,09,16.30
2007,08,15,01,10,16.30
2007,08,15,01,11,16.30
2007,08,15,01,12,16.30
2007,08,15,01,13,16.30
2007,08,15,01,14,16.30
2007,08,15,01,15,16.30
2007,08,15,01,16,16.30
2007,08,15,01,17,16.30
2007,08,15,01,18,16.30
2007,08,15,01,19,16.20
2007,08,15,01,20,16.20
2007,08,15,01,21,16.20
2007,08,15,01,22,16.20
2007,08,15,01,23,16.20
2007,08,15,01,24,16.20
2007,08,15,01,25,16.20
2007,08,15,01,26,16.20
2007,08,15,01,27,16.20
2007,08,15,01,28,16.20
2007,08,15,01,29,16.20
2007,08,15,01,30,16.20
2007,08,15,01,31,16.20
2007,08,15,01,32,16.20
2007,08,15,01,33,16.10
2007,08,15,01,34,16.10
2007,08,15,01,35,16.10
2007,08,15,01,36,16.10
2007,08,15,01,37,16.10
2007,08,15,01,38,16.10
2007,08,15,01,39,16.10
2007,08,15,01,40,16.10
2007,08,15,01,41,16.10
2007,08,15,01,42,16.10
2007,08,15,01,43,16.10
2007,08,15,01,44,16.00
2007,08,15,01,45,16.00
2007,08,15,01,46,16.00
2007,08,15,01,47,15.90
2007,08,15,01,48,15.90
2007,08,15,01,49,15.90
2007,08,15,01,50,15.90
2007,08,15,01,51,15.90
2007,08,15,01,52,15.80
2007,08,15,01,53,15.80
2007,08,15,01,54,15.80
2007,08,15,01,55,15.80
2007,08,15,01,56,15.80
2007,08,15,01,57,15.80
2007,08,15,01,58,15.80
2007,08,15,01,59,15.80
2007,08,15,02,00,15.80
2007,08,15,02,01,15.80
2007,08,15,02,02,15.70
2007,08,15,02,03,15.70
2007,08,15,02,04,15.70
2007,08,15,02,05,15.70
2007,08,15,02,06,15.60
2007,08,15,02,07,15.60
2007,08,15,02,08,15.60
2007,08,15,02,09,15.50
2007,08,15,02,10,15.50
2007,08,15,02,11,15.50
2007,08,15,02,12,15.40
2007,08,15,02,13,15.40
2007,08,15,02,14,15.40
2007,08,15,02,15,15.40
2007,08,15,02,16,15.40
2007,08,15,02,17,15.40
2007,08,15,02,18,15.40
2007,08,15,02,19,15.40
2007,08,15,02,20,15.40
2007,08,15,02,21,15.40
2007,08,15,02,22,15.40
2007,08,15,02,23,15.40
2007,08,15,02,24,15.40
2007,08,15,02,25,15.40
2007,08,15,02,26,15.40
2007,08,15,02,27,15.40
2007,08,15,02,28,15.40
2007,08,15,02,29,15.30
2007,08,15,02,30,15.30
2007,08,15,02,31,15.30
2007,08,15,02,32,15.30
2007,08,15,02,33,15.30
2007,08,15,02,34,15.20
2007,08,15,02,35,15.20
2007,08,15,02,36,15.20
2007,08,15,02,37,15.20
2007,08,15,02,38,15.20
2007,08,15,02,39,15.20
2007,08,15,02,40,15.20
2007,08,15,02,41,15.20
2007,08,15,02,42,15.20
2007,08,15,02,43,15.20
2007,08,15,02,44,15.20
2007,08,15,02,45,15.20
2007,08,15,02,46,15.20
2007,08,15,02,47,15.20
2007,08,15,02,48,15.10
2007,08,15,02,49,15.10
2007,08,15,02,50,15.10
2007,08,15,02,51,15.00
2007,08,15,02,52,15.00
2007,08,15,02,53,15.00
2007,08,15,02,54,15.00
2007,08,15,02,55,15.00
2007,08,15,02,56,15.00
2007,08,15,02,57,15.00
2007,08,15,02,58,15.00
2007,08,15,02,59,15.00
2007,08,15,03,00,15.00
2007,08,15,03,01,15.00
2007,08,15,03,02,15.00
2007,08,15,03,03,15.00
2007,08,15,03,04,15.00
2007,08,15,03,05,15.00
2007,08,15,03,06,14.90
2007,08,15,03,07,14.80
2007,08,15,03,08,14.80
2007,08,15,03,09,14.80
2007,08,15,03,10,14.70
2007,08,15,03,11,14.70
2007,08,15,03,12,14.70
2007,08,15,03,13,14.70
2007,08,15,03,14,14.70
2007,08,15,03,15,14.70
2007,08,15,03,16,14.60
2007,08,15,03,17,14.60
2007,08,15,03,18,14.60
2007,08,15,03,19,14.60
2007,08,15,03,20,14.60
2007,08,15,03,21,14.60
2007,08,15,03,22,14.60
2007,08,15,03,23,14.50
2007,08,15,03,24,14.50
2007,08,15,03,25,14.50
2007,08,15,03,26,14.50
2007,08,15,03,27,14.50
2007,08,15,03,28,14.40
2007,08,15,03,29,14.40
2007,08,15,03,30,14.40
2007,08,15,03,31,14.40
2007,08,15,03,32,14.40
2007,08,15,03,33,14.40
2007,08,15,03,34,14.40
2007,08,15,03,35,14.40
2007,08,15,03,36,14.40
2007,08,15,03,37,14.40
2007,08,15,03,38,14.40
2007,08,15,03,39,14.40
2007,08,15,03,40,14.40
2007,08,15,03,41,14.40
2007,08,15,03,42,14.40
2007,08,15,03,43,14.40
2007,08,15,03,44,14.40
2007,08,15,03,45,14.40
2007,08,15,03,46,14.30
2007,08,15,03,47,14.30
2007,08,15,03,48,14.30
2007,08,15,03,49,14.30
2007,08,15,03,50,14.30
2007,08,15,03,51,14.30
2007,08,15,03,52,14.30
2007,08,15,03,53,14.20
2007,08,15,03,54,14.20
2007,08,15,03,55,14.20
2007,08,15,03,56,14.20
2007,08,15,03,57,14.20
2007,08,15,03,58,14.20
2007,08,15,03,59,14.10
2007,08,15,04,00,14.10
2007,08,15,04,01,14.10
2007,08,15,04,02,14.10
2007,08,15,04,03,14.10
2007,08,15,04,04,14.10
2007,08,15,04,05,14.10
2007,08,15,04,06,14.10
2007,08,15,04,07,14.10
2007,08,15,04,08,14.10
2007,08,15,04,09,14.10
2007,08,15,04,10,14.10
2007,08,15,04,11,14.00
2007,08,15,04,12,14.00
2007,08,15,04,13,14.00
2007,08,15,04,14,14.00
2007,08,15,04,15,14.00
2007,08,15,04,16,14.00
2007,08,15,04,17,14.00
2007,08,15,04,18,14.00
2007,08,15,04,19,14.00
2007,08,15,04,20,14.00
2007,08,15,04,21,14.00
2007,08,15,04,22,13.90
2007,08,15,04,23,13.90
2007,08,15,04,24,13.90
2007,08,15,04,25,13.90
2007,08,15,04,26,13.90
2007,08,15,04,27,13.90
2007,08,15,04,28,13.90
2007,08,15,04,29,13.90
2007,08,15,04,30,13.90
2007,08,15,04,31,13.90
2007,08,15,04,32,13.80
2007,08,15,04,33,13.80
2007,08,15,04,34,13.80
2007,08,15,04,35,13.80
2007,08,15,04,36,13.80
2007,08,15,04,37,13.80
2007,08,15,04,38,13.80
2007,08,15,04,39,13.80
2007,08,15,04,40,13.80
2007,08,15,04,41,13.80
2007,08,15,04,42,13.80
2007,08,15,04,43,13.80
2007,08,15,04,44,13.80
2007,08,15,04,45,13.80
2007,08,15,04,46,13.80
2007,08,15,04,47,13.80
2007,08,15,04,48,13.80
2007,08,15,04,49,13.80
2007,08,15,04,50,13.80
2007,08,15,04,51,13.80
2007,08,15,04,52,13.80
2007,08,15,04,53,13.80
2007,08,15,04,54,13.80
2007,08,15,04,55,13.80
2007,08,15,04,56,13.80
2007,08,15,04,57,13.80
2007,08,15,04,58,13.80
2007,08,15,04,59,13.80
2007,08,15,05,00,13.80
2007,08,15,05,01,13.80
2007,08,15,05,02,13.80
2007,08,15,05,03,13.80
2007,08,15,05,04,13.70
2007,08,15,05,05,13.70
2007,08,15,05,06,13.70
2007,08,15,05,07,13.70
2007,08,15,05,08,13.70
2007,08,15,05,09,13.70
2007,08,15,05,10,13.70
2007,08,15,05,11,13.70
2007,08,15,05,12,13.70
2007,08,15,05,13,13.70
2007,08,15,05,14,13.70
2007,08,15,05,15,13.70
2007,08,15,05,16,13.70
2007,08,15,05,17,13.70
2007,08,15,05,18,13.70
2007,08,15,05,19,13.70
2007,08,15,05,20,13.70
2007,08,15,05,21,13.70
2007,08,15,05,22,13.70
2007,08,15,05,23,13.70
2007,08,15,05,24,13.70
2007,08,15,05,25,13.60
2007,08,15,05,26,13.60
2007,08,15,05,27,13.60
2007,08,15,05,28,13.60
2007,08,15,05,29,13.60
2007,08,15,05,30,13.60
2007,08,15,05,31,13.60
2007,08,15,05,32,13.60
2007,08,15,05,33,13.60
2007,08,15,05,34,13.60
2007,08,15,05,35,13.60
2007,08,15,05,36,13.60
2007,08,15,05,37,13.50
2007,08,15,05,38,13.50
2007,08,15,05,39,13.50
2007,08,15,05,40,13.50
2007,08,15,05,41,13.50
2007,08,15,05,42,13.50
2007,08,15,05,43,13.50
2007,08,15,05,44,13.50
2007,08,15,05,45,13.40
2007,08,15,05,46,13.40
2007,08,15,05,47,13.40
2007,08,15,05,48,13.40
2007,08,15,05,49,13.30
2007,08,15,05,50,13.30
2007,08,15,05,51,13.30
2007,08,15,05,52,13.30
2007,08,15,05,53,13.30
2007,08,15,05,54,13.30
2007,08,15,05,55,13.20
2007,08,15,05,56,13.20
2007,08,15,05,57,13.20
2007,08,15,05,58,13.20
2007,08,15,05,59,13.20
2007,08,15,06,00,13.20
2007,08,15,06,01,13.20
2007,08,15,06,02,13.20
2007,08,15,06,03,13.20
2007,08,15,06,04,13.20
2007,08,15,06,05,13.20
2007,08,15,06,06,13.20
2007,08,15,06,07,13.20
2007,08,15,06,08,13.20
2007,08,15,06,09,13.20
2007,08,15,06,10,13.20
2007,08,15,06,11,13.20
2007,08,15,06,12,13.20
2007,08,15,06,13,13.20
2007,08,15,06,14,13.20
2007,08,15,06,15,13.20
2007,08,15,06,16,13.20
2007,08,15,06,17,13.20
2007,08,15,06,18,13.20
2007,08,15,06,19,13.20
2007,08,15,06,20,13.20
2007,08,15,06,21,13.20
2007,08,15,06,22,13.20
2007,08,15,06,23,13.20
2007,08,15,06,24,13.20
2007,08,15,06,25,13.30
2007,08,15,06,26,13.30
2007,08,15,06,27,13.30
2007,08,15,06,28,13.30
2007,08,15,06,29,13.30
2007,08,15,06,30,13.30
2007,08,15,06,31,13.30
2007,08,15,06,32,13.30
2007,08,15,06,33,13.30
2007,08,15,06,34,13.30
2007,08,15,06,35,13.30
2007,08,15,06,36,13.30
2007,08,15,06,37,13.30
2007,08,15,06,38,13.30
2007,08,15,06,39,13.30
2007,08,15,06,40,13.30
2007,08,15,06,41,13.30
2007,08,15,06,42,13.40
2007,08,15,06,43,13.40
2007,08,15,06,44,13.40
2007,08,15,06,45,13.40
2007,08,15,06,46,13.40
2007,08,15,06,47,13.50
2007,08,15,06,48,13.50
2007,08,15,06,49,13.50
2007,08,15,06,50,13.50
2007,08,15,06,51,13.60
2007,08,15,06,52,13.60
2007,08,15,06,53,13.60
2007,08,15,06,54,13.70
2007,08,15,06,55,13.70
2007,08,15,06,56,13.80
2007,08,15,06,57,13.80
2007,08,15,06,58,13.90
2007,08,15,06,59,14.00
2007,08,15,07,00,14.10
2007,08,15,07,01,14.10
2007,08,15,07,02,14.10
2007,08,15,07,03,14.20
2007,08,15,07,04,14.20
2007,08,15,07,05,14.30
2007,08,15,07,06,14.30
2007,08,15,07,07,14.30
2007,08,15,07,08,14.30
2007,08,15,07,09,14.40
2007,08,15,07,10,14.40
2007,08,15,07,11,14.50
2007,08,15,07,12,14.50
2007,08,15,07,13,14.60
2007,08,15,07,14,14.60
2007,08,15,07,15,14.70
2007,08,15,07,16,14.70
2007,08,15,07,17,14.80
2007,08,15,07,18,14.80
2007,08,15,07,19,14.90
2007,08,15,07,20,15.00
2007,08,15,07,21,15.00
2007,08,15,07,22,15.00
2007,08,15,07,23,15.00
2007,08,15,07,24,15.00
2007,08,15,07,25,15.10
2007,08,15,07,26,15.20
2007,08,15,07,27,15.30
2007,08,15,07,28,15.30
2007,08,15,07,29,15.40
2007,08,15,07,30,15.50
2007,08,15,07,31,15.60
2007,08,15,07,32,15.70
2007,08,15,07,33,15.80
2007,08,15,07,34,15.90
2007,08,15,07,35,16.00
2007,08,15,07,36,16.10
2007,08,15,07,37,16.20
2007,08,15,07,38,16.30
2007,08,15,07,39,16.40
2007,08,15,07,40,16.40
2007,08,15,07,41,16.50
2007,08,15,07,42,16.50
2007,08,15,07,43,16.50
2007,08,15,07,44,16.60
2007,08,15,07,45,16.60
2007,08,15,07,46,16.60
2007,08,15,07,47,16.70
2007,08,15,07,48,16.70
2007,08,15,07,49,16.80
2007,08,15,07,50,16.90
2007,08,15,07,51,17.00
2007,08,15,07,52,17.10
2007,08,15,07,53,17.20
2007,08,15,07,54,17.30
2007,08,15,07,55,17.40
2007,08,15,07,56,17.40
2007,08,15,07,57,17.50
2007,08,15,07,58,17.50
2007,08,15,07,59,17.60
2007,08,15,08,00,17.60
2007,08,15,08,01,17.70
2007,08,15,08,02,17.70
2007,08,15,08,03,17.70
2007,08,15,08,04,17.70
2007,08,15,08,05,17.70
2007,08,15,08,06,17.80
2007,08,15,08,07,17.80
2007,08,15,08,08,17.80
2007,08,15,08,09,17.90
2007,08,15,08,10,17.90
2007,08,15,08,11,18.00
2007,08,15,08,12,18.10
2007,08,15,08,13,18.10
2007,08,15,08,14,18.20
2007,08,15,08,15,18.30
2007,08,15,08,16,18.40
2007,08,15,08,17,18.50
2007,08,15,08,18,18.50
2007,08,15,08,19,18.60
2007,08,15,08,20,18.70
2007,08,15,08,21,18.80
2007,08,15,08,22,18.90
2007,08,15,08,23,19.00
2007,08,15,08,24,19.00
2007,08,15,08,25,19.10
2007,08,15,08,26,19.20
2007,08,15,08,27,19.20
2007,08,15,08,28,19.30
2007,08,15,08,29,19.30
2007,08,15,08,30,19.40
2007,08,15,08,31,19.50
2007,08,15,08,32,19.50
2007,08,15,08,33,19.60
2007,08,15,08,34,19.60
2007,08,15,08,35,19.70
2007,08,15,08,36,19.70
2007,08,15,08,37,19.80
2007,08,15,08,38,19.80
2007,08,15,08,39,19.90
2007,08,15,08,40,19.90
2007,08,15,08,41,20.00
2007,08,15,08,42,20.10
2007,08,15,08,43,20.20
2007,08,15,08,44,20.20
2007,08,15,08,45,20.30
2007,08,15,08,46,20.30
2007,08,15,08,47,20.40
2007,08,15,08,48,20.40
2007,08,15,08,49,20.40
2007,08,15,08,50,20.40
2007,08,15,08,51,20.50
2007,08,15,08,52,20.50
2007,08,15,08,53,20.60
2007,08,15,08,54,20.70
2007,08,15,08,55,20.70
2007,08,15,08,56,20.80
2007,08,15,08,57,20.90
2007,08,15,08,58,20.90
2007,08,15,08,59,21.00
2007,08,15,09,00,21.10
2007,08,15,09,01,21.10
2007,08,15,09,02,21.20
2007,08,15,09,03,21.20
2007,08,15,09,04,21.30
2007,08,15,09,05,21.30
2007,08,15,09,06,21.30
2007,08,15,09,07,21.30
2007,08,15,09,08,21.30
2007,08,15,09,09,21.30
2007,08,15,09,10,21.40
2007,08,15,09,11,21.40
2007,08,15,09,12,21.50
2007,08,15,09,13,21.60
2007,08,15,09,14,21.60
2007,08,15,09,15,21.70
2007,08,15,09,16,21.70
2007,08,15,09,17,21.80
2007,08,15,09,18,21.80
2007,08,15,09,19,21.80
2007,08,15,09,20,21.90
2007,08,15,09,21,21.90
2007,08,15,09,22,21.80
2007,08,15,09,23,21.80
2007,08,15,09,24,21.90
2007,08,15,09,25,22.00
2007,08,15,09,26,22.00
2007,08,15,09,27,22.10
2007,08,15,09,28,22.10
2007,08,15,09,29,22.10
2007,08,15,09,30,22.10
2007,08,15,09,31,22.10
2007,08,15,09,32,22.20
2007,08,15,09,33,22.20
2007,08,15,09,34,22.30
2007,08,15,09,35,22.30
2007,08,15,09,36,22.30
2007,08,15,09,37,22.40
2007,08,15,09,38,22.40
2007,08,15,09,39,22.40
2007,08,15,09,40,22.40
2007,08,15,09,41,22.50
2007,08,15,09,42,22.50
2007,08,15,09,43,22.60
2007,08,15,09,44,22.70
2007,08,15,09,45,22.70
2007,08,15,09,46,22.70
2007,08,15,09,47,22.70
2007,08,15,09,48,22.70
2007,08,15,09,49,22.60
2007,08,15,09,50,22.60
2007,08,15,09,51,22.60
2007,08,15,09,52,22.60
2007,08,15,09,53,22.50
2007,08,15,09,54,22.50
2007,08,15,09,55,22.50
2007,08,15,09,56,22.50
2007,08,15,09,57,22.60
2007,08,15,09,58,22.60
2007,08,15,09,59,22.70
2007,08,15,10,00,22.60
2007,08,15,10,01,22.60
2007,08,15,10,02,22.60
2007,08,15,10,03,22.60
2007,08,15,10,04,22.60
2007,08,15,10,05,22.60
2007,08,15,10,06,22.70
2007,08,15,10,07,22.80
2007,08,15,10,08,22.80
2007,08,15,10,09,22.90
2007,08,15,10,10,23.00
2007,08,15,10,11,23.10
2007,08,15,10,12,23.10
2007,08,15,10,13,23.20
2007,08,15,10,14,23.20
2007,08,15,10,15,23.10
2007,08,15,10,16,23.10
2007,08,15,10,17,23.10
2007,08,15,10,18,23.10
2007,08,15,10,19,23.10
2007,08,15,10,20,23.00
2007,08,15,10,21,23.00
2007,08,15,10,22,22.90
2007,08,15,10,23,22.90
2007,08,15,10,24,22.90
2007,08,15,10,25,22.90
2007,08,15,10,26,22.90
2007,08,15,10,27,22.90
2007,08,15,10,28,22.80
2007,08,15,10,29,22.60
2007,08,15,10,30,22.40
2007,08,15,10,31,22.30
2007,08,15,10,32,22.20
2007,08,15,10,33,22.20
2007,08,15,10,34,22.20
2007,08,15,10,35,22.20
2007,08,15,10,36,22.20
2007,08,15,10,37,22.20
2007,08,15,10,38,22.10
2007,08,15,10,39,22.10
2007,08,15,10,40,22.10
2007,08,15,10,41,22.00
2007,08,15,10,42,22.00
2007,08,15,10,43,22.00
2007,08,15,10,44,22.10
2007,08,15,10,45,22.30
2007,08,15,10,46,22.40
2007,08,15,10,47,22.40
2007,08,15,10,48,22.40
2007,08,15,10,49,22.40
2007,08,15,10,50,22.40
2007,08,15,10,51,22.40
2007,08,15,10,52,22.40
2007,08,15,10,53,22.40
2007,08,15,10,54,22.40
2007,08,15,10,55,22.40
2007,08,15,10,56,22.50
2007,08,15,10,57,22.60
2007,08,15,10,58,22.70
2007,08,15,10,59,22.80
2007,08,15,11,00,22.80
2007,08,15,11,01,22.90
2007,08,15,11,02,23.00
2007,08,15,11,03,23.10
2007,08,15,11,04,23.10
2007,08,15,11,05,23.20
2007,08,15,11,06,23.10
2007,08,15,11,07,22.90
2007,08,15,11,08,22.80
2007,08,15,11,09,22.80
2007,08,15,11,10,22.80
2007,08,15,11,11,22.90
2007,08,15,11,12,22.90
2007,08,15,11,13,22.90
2007,08,15,11,14,22.90
2007,08,15,11,15,23.00
2007,08,15,11,16,23.10
2007,08,15,11,17,23.20
2007,08,15,11,18,23.20
2007,08,15,11,19,23.30
2007,08,15,11,20,23.30
2007,08,15,11,21,23.20
2007,08,15,11,22,23.00
2007,08,15,11,23,22.90
2007,08,15,11,24,22.90
2007,08,15,11,25,22.80
2007,08,15,11,26,22.80
2007,08,15,11,27,22.80
2007,08,15,11,28,22.90
2007,08,15,11,29,23.00
2007,08,15,11,30,23.00
2007,08,15,11,31,23.10
2007,08,15,11,32,23.20
2007,08,15,11,33,23.30
2007,08,15,11,34,23.40
2007,08,15,11,35,23.40
2007,08,15,11,36,23.40
2007,08,15,11,37,23.30
2007,08,15,11,38,23.30
2007,08,15,11,39,23.40
2007,08,15,11,40,23.30
2007,08,15,11,41,23.40
2007,08,15,11,42,23.40
2007,08,15,11,43,23.40
2007,08,15,11,44,23.60
2007,08,15,11,45,23.60
2007,08,15,11,46,23.60
2007,08,15,11,47,23.50
2007,08,15,11,48,23.50
2007,08,15,11,49,23.50
2007,08,15,11,50,23.50
2007,08,15,11,51,23.60
2007,08,15,11,52,23.70
2007,08,15,11,53,23.80
2007,08,15,11,54,23.80
2007,08,15,11,55,23.90
2007,08,15,11,56,24.00
2007,08,15,11,57,24.00
2007,08,15,11,58,24.10
2007,08,15,11,59,24.10
2007,08,15,12,00,24.10
2007,08,15,12,01,24.10
2007,08,15,12,02,24.10
2007,08,15,12,03,24.10
2007,08,15,12,04,24.10
2007,08,15,12,05,24.10
2007,08,15,12,06,24.10
2007,08,15,12,07,24.20
2007,08,15,12,08,24.30
2007,08,15,12,09,24.40
2007,08,15,12,10,24.40
2007,08,15,12,11,24.40
2007,08,15,12,12,24.50
2007,08,15,12,13,24.60
2007,08,15,12,14,24.60
2007,08,15,12,15,24.60
2007,08,15,12,16,24.60
2007,08,15,12,17,24.60
2007,08,15,12,18,24.70
2007,08,15,12,19,24.70
2007,08,15,12,20,24.80
2007,08,15,12,21,24.80
2007,08,15,12,22,24.90
2007,08,15,12,23,24.90
2007,08,15,12,24,24.90
2007,08,15,12,25,24.80
2007,08,15,12,26,24.90
2007,08,15,12,27,25.00
2007,08,15,12,28,25.00
2007,08,15,12,29,24.90
2007,08,15,12,30,24.90
2007,08,15,12,31,24.90
2007,08,15,12,32,24.80
2007,08,15,12,33,24.80
2007,08,15,12,34,24.90
2007,08,15,12,35,25.00
2007,08,15,12,36,25.00
2007,08,15,12,37,25.00
2007,08,15,12,38,25.10
2007,08,15,12,39,25.10
2007,08,15,12,40,25.10
2007,08,15,12,41,25.10
2007,08,15,12,42,25.10
2007,08,15,12,43,25.10
2007,08,15,12,44,25.20
2007,08,15,12,45,25.20
2007,08,15,12,46,25.20
2007,08,15,12,47,25.30
2007,08,15,12,48,25.30
2007,08,15,12,49,25.30
2007,08,15,12,50,25.30
2007,08,15,12,51,25.40
2007,08,15,12,52,25.50
2007,08,15,12,53,25.70
2007,08,15,12,54,25.90
2007,08,15,12,55,25.80
2007,08,15,12,56,25.70
2007,08,15,12,57,25.60
2007,08,15,12,58,25.60
2007,08,15,12,59,25.50
2007,08,15,13,00,25.50
2007,08,15,13,01,25.60
2007,08,15,13,02,25.60
2007,08,15,13,03,25.60
2007,08,15,13,04,25.70
2007,08,15,13,05,25.90
2007,08,15,13,06,25.90
2007,08,15,13,07,25.90
2007,08,15,13,08,25.90
2007,08,15,13,09,26.00
2007,08,15,13,10,26.00
2007,08,15,13,11,25.90
2007,08,15,13,12,25.80
2007,08,15,13,13,25.70
2007,08,15,13,14,25.80
2007,08,15,13,15,25.80
2007,08,15,13,16,25.80
2007,08,15,13,17,25.80
2007,08,15,13,18,25.70
2007,08,15,13,19,25.70
2007,08,15,13,20,25.70
2007,08,15,13,21,25.80
2007,08,15,13,22,25.80
2007,08,15,13,23,25.80
2007,08,15,13,24,25.70
2007,08,15,13,25,25.60
2007,08,15,13,26,25.40
2007,08,15,13,27,25.20
2007,08,15,13,28,25.00
2007,08,15,13,29,24.80
2007,08,15,13,30,24.60
2007,08,15,13,31,24.30
2007,08,15,13,32,24.10
2007,08,15,13,33,23.80
2007,08,15,13,34,23.60
2007,08,15,13,35,23.40
2007,08,15,13,36,23.30
2007,08,15,13,37,23.20
2007,08,15,13,38,23.10
2007,08,15,13,39,23.00
2007,08,15,13,40,22.90
2007,08,15,13,41,22.70
2007,08,15,13,42,22.50
2007,08,15,13,43,22.30
2007,08,15,13,44,22.20
2007,08,15,13,45,22.10
2007,08,15,13,46,22.00
2007,08,15,13,47,22.00
2007,08,15,13,48,22.00
2007,08,15,13,49,22.00
2007,08,15,13,50,22.00
2007,08,15,13,51,21.90
2007,08,15,13,52,21.90
2007,08,15,13,53,21.90
2007,08,15,13,54,21.80
2007,08,15,13,55,21.80
2007,08,15,13,56,21.80
2007,08,15,13,57,21.60
2007,08,15,13,58,21.50
2007,08,15,13,59,21.30
2007,08,15,14,00,21.20
2007,08,15,14,01,21.20
2007,08,15,14,02,21.20
2007,08,15,14,03,21.20
2007,08,15,14,04,21.20
2007,08,15,14,05,21.30
2007,08,15,14,06,21.30
2007,08,15,14,07,21.30
2007,08,15,14,08,21.30
2007,08,15,14,09,21.30
2007,08,15,14,10,21.20
2007,08,15,14,11,21.20
2007,08,15,14,12,21.10
2007,08,15,14,13,21.10
2007,08,15,14,14,21.20
2007,08,15,14,15,21.20
2007,08,15,14,16,21.30
2007,08,15,14,17,21.30
2007,08,15,14,18,21.30
2007,08,15,14,19,21.30
2007,08,15,14,20,21.40
2007,08,15,14,21,21.50
2007,08,15,14,22,21.50
2007,08,15,14,23,21.60
2007,08,15,14,24,21.60
2007,08,15,14,25,21.70
2007,08,15,14,26,21.80
2007,08,15,14,27,21.80
2007,08,15,14,28,21.80
2007,08,15,14,29,21.80
2007,08,15,14,30,21.80
2007,08,15,14,31,21.70
2007,08,15,14,32,21.70
2007,08,15,14,33,21.70
2007,08,15,14,34,21.70
2007,08,15,14,35,21.70
2007,08,15,14,36,21.80
2007,08,15,14,37,21.90
2007,08,15,14,38,22.00
2007,08,15,14,39,22.10
2007,08,15,14,40,22.20
2007,08,15,14,41,22.30
2007,08,15,14,42,22.30
2007,08,15,14,43,22.30
2007,08,15,14,44,22.30
2007,08,15,14,45,22.30
2007,08,15,14,46,22.30
2007,08,15,14,47,22.30
2007,08,15,14,48,22.30
2007,08,15,14,49,22.30
2007,08,15,14,50,22.30
2007,08,15,14,51,22.30
2007,08,15,14,52,22.40
2007,08,15,14,53,22.50
2007,08,15,14,54,22.60
2007,08,15,14,55,22.60
2007,08,15,14,56,22.70
2007,08,15,14,57,22.80
2007,08,15,14,58,22.80
2007,08,15,14,59,22.90
2007,08,15,15,00,22.90
2007,08,15,15,01,22.80
2007,08,15,15,02,22.80
2007,08,15,15,03,22.70
2007,08,15,15,04,22.60
2007,08,15,15,05,22.40
2007,08,15,15,06,22.20
2007,08,15,15,07,22.10
2007,08,15,15,08,22.10
2007,08,15,15,09,22.10
2007,08,15,15,10,22.10
2007,08,15,15,11,22.10
2007,08,15,15,12,22.10
2007,08,15,15,13,22.10
2007,08,15,15,14,22.20
2007,08,15,15,15,22.30
2007,08,15,15,16,22.40
2007,08,15,15,17,22.60
2007,08,15,15,18,22.70
2007,08,15,15,19,22.80
2007,08,15,15,20,22.80
2007,08,15,15,21,22.80
2007,08,15,15,22,22.80
2007,08,15,15,23,22.80
2007,08,15,15,24,22.80
2007,08,15,15,25,22.70
2007,08,15,15,26,22.70
2007,08,15,15,27,22.70
2007,08,15,15,28,22.70
2007,08,15,15,29,22.70
2007,08,15,15,30,22.80
2007,08,15,15,31,22.80
2007,08,15,15,32,22.90
2007,08,15,15,33,23.10
2007,08,15,15,34,23.20
2007,08,15,15,35,23.20
2007,08,15,15,36,23.30
2007,08,15,15,37,23.30
2007,08,15,15,38,23.30
2007,08,15,15,39,23.20
2007,08,15,15,40,23.20
2007,08,15,15,41,23.10
2007,08,15,15,42,23.00
2007,08,15,15,43,22.90
2007,08,15,15,44,22.90
2007,08,15,15,45,22.90
2007,08,15,15,46,23.00
2007,08,15,15,47,23.10
2007,08,15,15,48,23.20
2007,08,15,15,49,23.30
2007,08,15,15,50,23.30
2007,08,15,15,51,23.40
2007,08,15,15,52,23.40
2007,08,15,15,53,23.50
2007,08,15,15,54,23.50
2007,08,15,15,55,23.60
2007,08,15,15,56,23.70
2007,08,15,15,57,23.70
2007,08,15,15,58,23.80
2007,08,15,15,59,23.80
2007,08,15,16,00,23.80
2007,08,15,16,01,23.70
2007,08,15,16,02,23.70
2007,08,15,16,03,23.70
2007,08,15,16,04,23.80
2007,08,15,16,05,23.70
2007,08,15,16,06,23.70
2007,08,15,16,07,23.80
2007,08,15,16,08,23.80
2007,08,15,16,09,23.80
2007,08,15,16,10,23.90
2007,08,15,16,11,23.90
2007,08,15,16,12,23.90
2007,08,15,16,13,23.90
2007,08,15,16,14,23.90
2007,08,15,16,15,24.00
2007,08,15,16,16,24.00
2007,08,15,16,17,24.10
2007,08,15,16,18,24.10
2007,08,15,16,19,24.20
2007,08,15,16,20,24.30
2007,08,15,16,21,24.30
2007,08,15,16,22,24.40
2007,08,15,16,23,24.40
2007,08,15,16,24,24.20
2007,08,15,16,25,24.10
2007,08,15,16,26,24.10
2007,08,15,16,27,24.10
2007,08,15,16,28,24.00
2007,08,15,16,29,24.00
2007,08,15,16,30,24.10
2007,08,15,16,31,24.10
2007,08,15,16,32,24.10
2007,08,15,16,33,24.10
2007,08,15,16,34,24.20
2007,08,15,16,35,24.20
2007,08,15,16,36,24.30
2007,08,15,16,37,24.40
2007,08,15,16,38,24.50
2007,08,15,16,39,24.60
2007,08,15,16,40,24.70
2007,08,15,16,41,24.80
2007,08,15,16,42,24.80
2007,08,15,16,43,24.80
2007,08,15,16,44,24.90
2007,08,15,16,45,25.00
2007,08,15,16,46,25.10
2007,08,15,16,47,25.20
2007,08,15,16,48,25.20
2007,08,15,16,49,25.40
2007,08,15,16,50,25.60
2007,08,15,16,51,25.80
2007,08,15,16,52,25.90
2007,08,15,16,53,26.00
2007,08,15,16,54,26.10
2007,08,15,16,55,26.20
2007,08,15,16,56,26.20
2007,08,15,16,57,26.30
2007,08,15,16,58,26.30
2007,08,15,16,59,26.30
2007,08,15,17,00,26.30
2007,08,15,17,01,26.30
2007,08,15,17,02,26.30
2007,08,15,17,03,26.30
2007,08,15,17,04,26.40
2007,08,15,17,05,26.40
2007,08,15,17,06,26.40
2007,08,15,17,07,26.40
2007,08,15,17,08,26.50
2007,08,15,17,09,26.50
2007,08,15,17,10,26.40
2007,08,15,17,11,26.40
2007,08,15,17,12,26.40
2007,08,15,17,13,26.40
2007,08,15,17,14,26.40
2007,08,15,17,15,26.30
2007,08,15,17,16,26.30
2007,08,15,17,17,26.30
2007,08,15,17,18,26.30
2007,08,15,17,19,26.40